Time,TemperatureF,DewpointF,PressureIn,WindDirection,WindDirectionDegrees,WindSpeedMPH,WindSpeedGustMPH,Humidity,HourlyPrecipIn,Conditions,Clouds,dailyrainin,SoftwareType,DateUTC
2013-05-02 00:02:00,68.5,40.5,30.06,NE,51,0.0,0.0,36,0.00,,,0.00,WeatherDisplay:10.36,2013-05-02 05:02:00,
2013-05-02 00:07:00,68.4,40.4,30.06,ENE,61,3.1,0.0,36,0.00,,,0.00,WeatherDisplay:10.36,2013-05-02 05:07:00,
2013-05-02 00:12:00,68.0,40.0,30.06,NE,48,2.7,0.0,36,0.00,,,0.00,WeatherDisplay:10.36,2013-05-02 05:12:00,
2013-05-02 00:17:00,67.8,39.9,30.06,ENE,59,0.0,0.0,36,0.00,,,0.00,WeatherDisplay:10.36,2013-05-02 05:17:00,
2013-05-02 00:22:00,67.6,39.7,30.06,NE,47,0.0,0.0,36,0.00,,,0.00,WeatherDisplay:10.36,2013-05-02 05:22:00,
2013-05-02 00:27:00,67.3,39.4,30.06,NE,42,0.0,0.0,36,0.00,,,0.00,WeatherDisplay:10.36,2013-05-02 05:27:00,
2013-05-02 00:32:00,67.1,39.9,30.06,NE,53,5.8,0.0,37,0.00,,,0.00,WeatherDisplay:10.36,2013-05-02 05:32:00,
2013-05-02 00:37:00,66.9,39.8,30.08,NE,52,0.0,0.0,37,0.00,,,0.00,WeatherDisplay:10.36,2013-05-02 05:37:00,
2013-05-02 00:42:00,66.7,39.6,30.08,NE,46,0.0,2.7,37,0.00,,,0.00,WeatherDisplay:10.36,2013-05-02 05:42:00,
2013-05-02 00:47:00,66.4,40.0,30.08,ENE,65,0.0,0.0,38,0.00,,,0.00,WeatherDisplay:10.36,2013-05-02 05:47:00,
2013-05-02 00:52:00,66.4,40.0,30.08,NE,48,0.0,0.0,38,0.00,,,0.00,WeatherDisplay:10.36,2013-05-02 05:52:00,
2013-05-02 00:57:00,66.4,40.7,30.08,NE,47,0.0,0.0,39,0.00,,,0.00,WeatherDisplay:10.36,2013-05-02 05:57:00,
2013-05-02 01:02:00,66.4,40.7,30.08,NE,46,0.0,0.0,39,0.00,,,0.00,WeatherDisplay:10.36,2013-05-02 06:02:00,
2013-05-02 01:07:00,66.4,40.7,30.08,NE,47,0.0,0.0,39,0.00,,,0.00,WeatherDisplay:10.36,2013-05-02 06:07:00,
2013-05-02 01:12:00,66.4,40.7,30.08,NNE,29,0.0,0.0,39,0.00,,,0.00,WeatherDisplay:10.36,2013-05-02 06:12:00,
2013-05-02 01:17:00,66.0,40.3,30.08,North,351,0.0,0.0,39,0.00,,,0.00,WeatherDisplay:10.36,2013-05-02 06:17:00,
2013-05-02 01:22:00,65.7,40.0,30.85,NE,48,0.0,0.0,39,0.00,,,0.00,WeatherDisplay:10.36,2013-05-02 06:22:00,
2013-05-02 01:27:00,65.7,40.0,30.85,North,351,0.0,0.0,39,0.00,,,0.00,WeatherDisplay:10.36,2013-05-02 06:27:00,
2013-05-02 01:32:00,65.1,40.2,30.85,ENE,63,0.0,0.0,40,0.00,,,0.00,WeatherDisplay:10.36,2013-05-02 06:32:00,
2013-05-02 01:37:00,65.1,40.8,30.06,NE,50,0.0,0.0,41,0.00,,,0.00,WeatherDisplay:10.36,2013-05-02 06:37:00,
2013-05-02 01:42:00,64.9,40.7,30.06,NE,47,0.0,2.7,41,0.00,,,0.00,WeatherDisplay:10.36,2013-05-02 06:42:00,
2013-05-02 01:47:00,64.4,40.2,30.06,North,351,4.9,0.0,41,0.00,,,0.00,WeatherDisplay:10.36,2013-05-02 06:47:00,
2013-05-02 01:52:00,63.5,40.0,30.08,NE,48,0.0,0.0,42,0.00,,,0.00,WeatherDisplay:10.36,2013-05-02 06:52:00,
2013-05-02 01:57:00,63.5,40.0,30.08,NE,47,0.0,0.0,42,0.00,,,0.00,WeatherDisplay:10.36,2013-05-02 06:57:00,
2013-05-02 02:02:00,63.5,40.6,30.08,NNE,32,0.0,0.0,43,0.00,,,0.00,WeatherDisplay:10.36,2013-05-02 07:02:00,
2013-05-02 02:08:00,63.3,40.4,30.08,NE,52,0.0,0.0,43,0.00,,,0.00,WeatherDisplay:10.36,2013-05-02 07:08:00,
2013-05-02 02:13:00,63.1,39.7,30.08,NNE,30,3.6,0.0,42,0.00,,,0.00,WeatherDisplay:10.36,2013-05-02 07:13:00,
2013-05-02 02:18:00,62.1,38.7,30.08,NNE,32,0.0,0.0,42,0.00,,,0.00,WeatherDisplay:10.36,2013-05-02 07:18:00,
2013-05-02 02:23:00,61.5,39.4,30.08,ENE,70,0.0,0.0,44,0.00,,,0.00,WeatherDisplay:10.36,2013-05-02 07:23:00,
2013-05-02 02:28:00,61.3,39.2,30.08,NE,47,0.0,0.0,44,0.00,,,0.00,WeatherDisplay:10.36,2013-05-02 07:28:00,
2013-05-02 02:33:00,61.5,39.4,30.08,NE,46,0.0,0.0,44,0.00,,,0.00,WeatherDisplay:10.36,2013-05-02 07:33:00,
2013-05-02 02:38:00,61.3,39.2,30.08,East,83,0.0,0.0,44,0.00,,,0.00,WeatherDisplay:10.36,2013-05-02 07:38:00,
2013-05-02 02:43:00,61.2,39.1,30.08,NE,53,2.3,0.0,44,0.00,,,0.00,WeatherDisplay:10.36,2013-05-02 07:43:00,
2013-05-02 02:48:00,60.4,38.4,30.08,ENE,77,0.0,0.0,44,0.00,,,0.00,WeatherDisplay:10.36,2013-05-02 07:48:00,
2013-05-02 02:53:00,59.9,38.5,30.08,NE,49,0.0,0.0,45,0.00,,,0.00,WeatherDisplay:10.36,2013-05-02 07:53:00,
2013-05-02 02:58:00,59.2,37.8,30.08,North,351,0.0,0.0,45,0.00,,,0.00,WeatherDisplay:10.36,2013-05-02 07:58:00,
2013-05-02 03:03:00,59.0,38.2,30.08,NE,48,5.8,0.0,46,0.00,,,0.00,WeatherDisplay:10.36,2013-05-02 08:03:00,
2013-05-02 03:08:00,58.8,38.1,30.08,ESE,121,0.0,0.0,46,0.00,,,0.00,WeatherDisplay:10.36,2013-05-02 08:08:00,
2013-05-02 03:13:00,58.1,38.0,30.08,NE,47,0.0,0.0,47,0.00,,,0.00,WeatherDisplay:10.36,2013-05-02 08:13:00,
2013-05-02 03:18:00,58.1,38.5,30.08,NE,47,0.0,0.0,48,0.00,,,0.00,WeatherDisplay:10.36,2013-05-02 08:18:00,
2013-05-02 03:23:00,57.9,38.3,30.08,NE,49,0.0,0.0,48,0.00,,,0.00,WeatherDisplay:10.36,2013-05-02 08:23:00,
2013-05-02 03:28:00,58.1,38.5,30.08,NE,46,0.0,0.0,48,0.00,,,0.00,WeatherDisplay:10.36,2013-05-02 08:28:00,
2013-05-02 03:33:00,58.1,38.5,30.08,ENE,67,0.0,0.0,48,0.00,,,0.00,WeatherDisplay:10.36,2013-05-02 08:33:00,
2013-05-02 03:38:00,57.7,38.2,30.08,NE,47,3.5,0.0,48,0.00,,,0.00,WeatherDisplay:10.36,2013-05-02 08:38:00,
2013-05-02 03:43:00,57.6,38.0,30.08,NE,47,0.0,0.0,48,0.00,,,0.00,WeatherDisplay:10.36,2013-05-02 08:43:00,
2013-05-02 03:48:00,57.4,37.8,30.08,NE,51,0.0,0.0,48,0.00,,,0.00,WeatherDisplay:10.36,2013-05-02 08:48:00,
2013-05-02 03:53:00,56.8,37.3,30.11,WSW,238,5.8,0.0,48,0.00,,,0.00,WeatherDisplay:10.36,2013-05-02 08:53:00,
2013-05-02 03:58:00,56.7,37.2,30.11,NE,50,0.0,0.0,48,0.00,,,0.00,WeatherDisplay:10.36,2013-05-02 08:58:00,
2013-05-02 04:03:00,56.7,37.2,30.11,ENE,58,0.0,0.0,48,0.00,,,0.00,WeatherDisplay:10.36,2013-05-02 09:03:00,
2013-05-02 04:08:00,55.9,36.5,30.11,ESE,119,3.1,0.0,48,0.00,,,0.00,WeatherDisplay:10.36,2013-05-02 09:08:00,
2013-05-02 04:13:00,55.6,36.2,30.11,NE,52,2.3,0.0,48,0.00,,,0.00,WeatherDisplay:10.36,2013-05-02 09:13:00,
2013-05-02 04:18:00,55.4,36.0,30.11,NNE,27,0.0,0.0,48,0.00,,,0.00,WeatherDisplay:10.36,2013-05-02 09:18:00,
2013-05-02 04:23:00,55.0,36.2,30.11,North,351,4.5,0.0,49,0.00,,,0.00,WeatherDisplay:10.36,2013-05-02 09:23:00,
2013-05-02 04:28:00,54.5,35.7,30.11,NE,47,3.5,0.0,49,0.00,,,0.00,WeatherDisplay:10.36,2013-05-02 09:28:00,
2013-05-02 04:33:00,54.3,35.5,30.88,NE,47,4.6,4.6,49,0.00,,,0.00,WeatherDisplay:10.36,2013-05-02 09:33:00,
2013-05-02 04:38:00,53.8,35.6,30.88,North,351,3.5,0.0,50,0.00,,,0.00,WeatherDisplay:10.36,2013-05-02 09:38:00,
2013-05-02 04:43:00,53.4,35.2,30.88,NE,47,0.0,0.0,50,0.00,,,0.00,WeatherDisplay:10.36,2013-05-02 09:43:00,
2013-05-02 04:48:00,53.4,35.7,30.11,NE,51,2.7,0.0,51,0.00,,,0.00,WeatherDisplay:10.36,2013-05-02 09:48:00,
2013-05-02 04:53:00,53.4,35.7,30.11,NE,48,0.0,0.0,51,0.00,,,0.00,WeatherDisplay:10.36,2013-05-02 09:53:00,
2013-05-02 04:58:00,53.2,35.6,30.11,NE,45,3.5,0.0,51,0.00,,,0.00,WeatherDisplay:10.36,2013-05-02 09:58:00,
2013-05-02 05:03:00,53.1,35.4,30.11,ENE,61,0.0,0.0,51,0.00,,,0.00,WeatherDisplay:10.36,2013-05-02 10:03:00,
2013-05-02 05:08:00,52.9,35.2,30.11,ENE,73,0.0,0.0,51,0.00,,,0.00,WeatherDisplay:10.36,2013-05-02 10:08:00,
2013-05-02 05:13:00,52.7,35.6,30.11,NE,46,0.0,0.0,52,0.00,,,0.00,WeatherDisplay:10.36,2013-05-02 10:13:00,
2013-05-02 05:18:00,52.7,35.6,30.91,North,351,0.0,0.0,52,0.00,,,0.00,WeatherDisplay:10.36,2013-05-02 10:18:00,
2013-05-02 05:23:00,52.3,35.2,30.91,NE,44,2.7,0.0,52,0.00,,,0.00,WeatherDisplay:10.36,2013-05-02 10:23:00,
2013-05-02 05:28:00,52.3,35.7,30.91,ENE,57,3.5,0.0,53,0.00,,,0.00,WeatherDisplay:10.36,2013-05-02 10:28:00,
2013-05-02 05:33:00,52.5,36.3,30.11,NE,49,6.9,6.9,54,0.00,,,0.00,WeatherDisplay:10.36,2013-05-02 10:33:00,
2013-05-02 05:38:00,52.0,35.4,30.11,NE,44,0.0,0.0,53,0.00,,,0.00,WeatherDisplay:10.36,2013-05-02 10:38:00,
2013-05-02 05:44:00,52.0,36.3,30.11,NE,54,4.5,0.0,55,0.00,,,0.00,WeatherDisplay:10.36,2013-05-02 10:44:00,
2013-05-02 05:49:00,52.2,36.5,30.14,NE,49,0.0,0.0,55,0.00,,,0.00,WeatherDisplay:10.36,2013-05-02 10:49:00,
2013-05-02 05:55:00,52.3,37.1,30.14,East,91,0.0,0.0,56,0.00,,,0.00,WeatherDisplay:10.36,2013-05-02 10:55:00,
2013-05-02 06:00:00,52.3,36.6,30.14,NE,55,0.0,0.0,55,0.00,,,0.00,WeatherDisplay:10.36,2013-05-02 11:00:00,
2013-05-02 06:06:00,52.3,36.6,30.14,NE,50,5.8,0.0,55,0.00,,,0.00,WeatherDisplay:10.36,2013-05-02 11:06:00,
2013-05-02 06:11:00,52.0,35.8,30.14,SE,125,3.5,0.0,54,0.00,,,0.00,WeatherDisplay:10.36,2013-05-02 11:11:00,
2013-05-02 06:17:00,52.0,35.8,30.14,SE,125,3.5,0.0,54,0.00,,,0.00,WeatherDisplay:10.36,2013-05-02 11:17:00,
2013-05-02 06:22:00,51.8,36.1,30.14,NE,46,0.0,0.0,55,0.00,,,0.00,WeatherDisplay:10.36,2013-05-02 11:22:00,
2013-05-02 06:27:00,51.8,36.1,30.14,NE,46,0.0,0.0,55,0.00,,,0.00,WeatherDisplay:10.36,2013-05-02 11:27:00,
2013-05-02 06:32:00,51.6,36.0,30.14,NE,48,3.6,0.0,55,0.00,,,0.00,WeatherDisplay:10.36,2013-05-02 11:32:00,
2013-05-02 06:37:00,51.6,36.0,30.14,NE,48,3.6,0.0,55,0.00,,,0.00,WeatherDisplay:10.36,2013-05-02 11:37:00,
2013-05-02 06:42:00,51.4,35.3,30.14,NE,49,5.8,0.0,54,0.00,,,0.00,WeatherDisplay:10.36,2013-05-02 11:42:00,
2013-05-02 06:47:00,51.3,35.2,30.14,WSW,240,0.0,0.0,54,0.00,,,0.00,WeatherDisplay:10.36,2013-05-02 11:47:00,
2013-05-02 06:52:00,51.3,35.6,30.17,North,351,0.0,0.0,55,0.00,,,0.00,WeatherDisplay:10.36,2013-05-02 11:52:00,
2013-05-02 06:57:00,51.3,35.6,30.17,North,351,0.0,0.0,55,0.00,,,0.00,WeatherDisplay:10.36,2013-05-02 11:57:00,
2013-05-02 07:02:00,51.1,35.5,30.17,NE,47,0.0,0.0,55,0.00,,,0.00,WeatherDisplay:10.36,2013-05-02 12:02:00,
2013-05-02 07:08:00,51.1,35.5,30.17,NE,47,0.0,0.0,55,0.00,,,0.00,WeatherDisplay:10.36,2013-05-02 12:08:00,
2013-05-02 07:13:00,51.1,35.0,30.17,NNE,27,0.0,0.0,54,0.00,,,0.00,WeatherDisplay:10.36,2013-05-02 12:13:00,
2013-05-02 07:18:00,51.3,35.2,30.17,NNE,27,3.5,0.0,54,0.00,,,0.00,WeatherDisplay:10.36,2013-05-02 12:18:00,
2013-05-02 07:24:00,51.3,35.2,30.17,NE,49,2.3,0.0,54,0.00,,,0.00,WeatherDisplay:10.36,2013-05-02 12:24:00,
2013-05-02 07:29:00,51.4,35.3,30.17,NE,54,0.0,0.0,54,0.00,,,0.00,WeatherDisplay:10.36,2013-05-02 12:29:00,
2013-05-02 07:35:00,51.6,35.5,30.17,NE,53,4.6,0.0,54,0.00,,,0.00,WeatherDisplay:10.36,2013-05-02 12:35:00,
2013-05-02 07:40:00,51.6,34.6,30.17,NNE,28,4.9,0.0,52,0.00,,,0.00,WeatherDisplay:10.36,2013-05-02 12:40:00,
2013-05-02 07:46:00,51.6,34.6,30.17,North,351,4.6,0.0,52,0.00,,,0.00,WeatherDisplay:10.36,2013-05-02 12:46:00,
2013-05-02 07:51:00,52.0,35.4,30.20,NE,52,4.9,0.0,53,0.00,,,0.00,WeatherDisplay:10.36,2013-05-02 12:51:00,
2013-05-02 07:57:00,52.0,35.4,30.20,NE,52,4.9,0.0,53,0.00,,,0.00,WeatherDisplay:10.36,2013-05-02 12:57:00,
2013-05-02 08:02:00,51.8,34.2,30.20,ENE,60,0.0,0.0,51,0.00,,,0.00,WeatherDisplay:10.36,2013-05-02 13:02:00,
2013-05-02 08:08:00,51.8,34.2,30.20,ENE,60,0.0,0.0,51,0.00,,,0.00,WeatherDisplay:10.36,2013-05-02 13:08:00,
2013-05-02 08:13:00,52.2,34.6,30.17,NE,50,9.2,9.2,51,0.00,,,0.00,WeatherDisplay:10.36,2013-05-02 13:13:00,
2013-05-02 08:18:00,52.2,34.6,30.17,NE,50,7.8,0.0,51,0.00,,,0.00,WeatherDisplay:10.36,2013-05-02 13:18:00,
2013-05-02 08:23:00,52.9,34.7,30.17,ENE,78,0.0,0.0,50,0.00,,,0.00,WeatherDisplay:10.36,2013-05-02 13:23:00,
2013-05-02 08:28:00,52.9,34.7,30.17,ENE,78,0.0,0.0,50,0.00,,,0.00,WeatherDisplay:10.36,2013-05-02 13:28:00,
2013-05-02 08:34:00,52.9,33.7,30.17,ENE,75,2.7,0.0,48,0.00,,,0.00,WeatherDisplay:10.36,2013-05-02 13:34:00,
2013-05-02 08:39:00,53.1,33.9,30.20,East,79,12.1,12.1,48,0.00,,,0.00,WeatherDisplay:10.36,2013-05-02 13:39:00,
2013-05-02 08:44:00,53.1,33.9,30.20,North,351,4.6,0.0,48,0.00,,,0.00,WeatherDisplay:10.36,2013-05-02 13:44:00,
2013-05-02 08:49:00,53.2,34.0,30.20,NE,49,3.5,0.0,48,0.00,,,0.00,WeatherDisplay:10.36,2013-05-02 13:49:00,
2013-05-02 08:54:00,53.4,34.7,30.20,NE,49,3.5,0.0,49,0.00,,,0.00,WeatherDisplay:10.36,2013-05-02 13:54:00,
2013-05-02 08:59:00,53.6,34.9,30.20,NE,56,0.0,0.0,49,0.00,,,0.00,WeatherDisplay:10.36,2013-05-02 13:59:00,
2013-05-02 09:04:00,54.0,35.2,30.20,NE,51,2.7,0.0,49,0.00,,,0.00,WeatherDisplay:10.36,2013-05-02 14:04:00,
2013-05-02 09:09:00,54.1,34.9,30.20,ENE,66,0.0,0.0,48,0.00,,,0.00,WeatherDisplay:10.36,2013-05-02 14:09:00,
2013-05-02 09:14:00,54.1,34.9,30.20,NE,53,0.0,0.0,48,0.00,,,0.00,WeatherDisplay:10.36,2013-05-02 14:14:00,
2013-05-02 09:19:00,54.1,34.3,30.17,NE,54,3.5,0.0,47,0.00,,,0.00,WeatherDisplay:10.36,2013-05-02 14:19:00,
2013-05-02 09:24:00,54.5,35.2,30.17,NW,322,0.0,0.0,48,0.00,,,0.00,WeatherDisplay:10.36,2013-05-02 14:24:00,
2013-05-02 09:29:00,54.5,34.7,30.17,NE,47,4.6,0.0,47,0.00,,,0.00,WeatherDisplay:10.36,2013-05-02 14:29:00,
2013-05-02 09:34:00,54.3,34.5,30.20,ENE,57,2.7,0.0,47,0.00,,,0.00,WeatherDisplay:10.36,2013-05-02 14:34:00,
2013-05-02 09:39:00,54.5,34.7,30.20,North,351,5.8,5.8,47,0.00,,,0.00,WeatherDisplay:10.36,2013-05-02 14:39:00,
2013-05-02 09:44:00,54.3,34.0,30.20,North,351,9.2,0.0,46,0.00,,,0.00,WeatherDisplay:10.36,2013-05-02 14:44:00,
2013-05-02 09:49:00,54.3,34.5,30.17,North,351,6.9,6.9,47,0.00,,,0.00,WeatherDisplay:10.36,2013-05-02 14:49:00,
2013-05-02 09:54:00,54.7,33.7,30.17,NE,50,6.9,6.9,45,0.00,,,0.00,WeatherDisplay:10.36,2013-05-02 14:54:00,
2013-05-02 09:59:00,54.7,33.7,30.17,NE,48,3.5,0.0,45,0.00,,,0.00,WeatherDisplay:10.36,2013-05-02 14:59:00,
2013-05-02 10:04:00,54.9,33.9,30.17,ENE,59,3.5,0.0,45,0.00,,,0.00,WeatherDisplay:10.36,2013-05-02 15:04:00,
2013-05-02 10:09:00,55.6,35.1,30.17,NE,47,4.0,0.0,46,0.00,,,0.00,WeatherDisplay:10.36,2013-05-02 15:09:00,
2013-05-02 10:14:00,55.8,33.6,30.17,North,351,10.4,10.4,43,0.00,,,0.00,WeatherDisplay:10.36,2013-05-02 15:14:00,
2013-05-02 10:19:00,55.6,34.6,30.17,North,351,4.5,0.0,45,0.00,,,0.00,WeatherDisplay:10.36,2013-05-02 15:19:00,
2013-05-02 10:24:00,56.3,35.2,30.17,East,83,4.0,0.0,45,0.00,,,0.00,WeatherDisplay:10.36,2013-05-02 15:24:00,
2013-05-02 10:29:00,56.8,35.1,30.17,NE,45,0.0,0.0,44,0.00,,,0.00,WeatherDisplay:10.36,2013-05-02 15:29:00,
2013-05-02 10:34:00,57.4,35.6,30.17,ESE,119,0.0,0.0,44,0.00,,,0.00,WeatherDisplay:10.36,2013-05-02 15:34:00,
2013-05-02 10:39:00,57.6,33.4,30.17,NE,46,0.0,0.0,40,0.00,,,0.00,WeatherDisplay:10.36,2013-05-02 15:39:00,
2013-05-02 10:44:00,57.7,34.2,30.17,NNE,28,5.8,0.0,41,0.00,,,0.00,WeatherDisplay:10.36,2013-05-02 15:44:00,
2013-05-02 10:49:00,57.9,33.7,31.06,NE,48,2.7,0.0,40,0.00,,,0.00,WeatherDisplay:10.36,2013-05-02 15:49:00,
2013-05-02 10:54:00,57.7,33.6,31.06,NE,48,2.7,0.0,40,0.00,,,0.00,WeatherDisplay:10.36,2013-05-02 15:54:00,
2013-05-02 10:59:00,57.9,34.3,31.06,NE,47,0.0,0.0,41,0.00,,,0.00,WeatherDisplay:10.36,2013-05-02 15:59:00,
2013-05-02 11:04:00,58.1,33.2,30.97,NE,44,6.9,6.9,39,0.00,,,0.00,WeatherDisplay:10.36,2013-05-02 16:04:00,
2013-05-02 11:09:00,58.1,33.9,30.97,NE,56,5.8,0.0,40,0.00,,,0.00,WeatherDisplay:10.36,2013-05-02 16:09:00,
2013-05-02 11:14:00,58.5,34.2,30.97,North,351,0.0,0.0,40,0.00,,,0.00,WeatherDisplay:10.36,2013-05-02 16:14:00,
2013-05-02 11:19:00,58.6,33.7,30.20,NE,53,3.6,0.0,39,0.00,,,0.00,WeatherDisplay:10.36,2013-05-02 16:19:00,
2013-05-02 11:24:00,58.6,33.7,30.20,NNE,28,2.3,0.0,39,0.00,,,0.00,WeatherDisplay:10.36,2013-05-02 16:24:00,
2013-05-02 11:29:00,58.5,33.6,30.20,NE,47,0.0,0.0,39,0.00,,,0.00,WeatherDisplay:10.36,2013-05-02 16:29:00,
2013-05-02 11:34:00,58.6,33.1,30.17,NE,47,5.8,0.0,38,0.00,,,0.00,WeatherDisplay:10.36,2013-05-02 16:34:00,
2013-05-02 11:39:00,58.5,33.6,30.17,NE,46,6.9,0.0,39,0.00,,,0.00,WeatherDisplay:10.36,2013-05-02 16:39:00,
2013-05-02 11:44:00,59.0,34.7,30.17,NE,48,0.0,0.0,40,0.00,,,0.00,WeatherDisplay:10.36,2013-05-02 16:44:00,
2013-05-02 11:49:00,59.4,35.0,30.20,ENE,60,0.0,0.0,40,0.00,,,0.00,WeatherDisplay:10.36,2013-05-02 16:49:00,
2013-05-02 11:54:00,59.7,34.7,30.20,NE,35,0.0,0.0,39,0.00,,,0.00,WeatherDisplay:10.36,2013-05-02 16:54:00,
2013-05-02 11:59:00,59.4,33.7,30.20,ENE,58,0.0,0.0,38,0.00,,,0.00,WeatherDisplay:10.36,2013-05-02 16:59:00,
2013-05-02 12:04:00,59.4,34.4,30.20,NE,51,0.0,0.0,39,0.00,,,0.00,WeatherDisplay:10.36,2013-05-02 17:04:00,
2013-05-02 12:09:00,59.0,33.4,30.20,NE,49,0.0,0.0,38,0.00,,,0.00,WeatherDisplay:10.36,2013-05-02 17:09:00,
2013-05-02 12:14:00,58.6,33.1,30.20,NE,46,4.6,4.6,38,0.00,,,0.00,WeatherDisplay:10.36,2013-05-02 17:14:00,
2013-05-02 12:19:00,58.5,33.6,30.20,North,351,5.8,0.0,39,0.00,,,0.00,WeatherDisplay:10.36,2013-05-02 17:19:00,
2013-05-02 12:24:00,58.1,33.9,30.20,NE,48,0.0,0.0,40,0.00,,,0.00,WeatherDisplay:10.36,2013-05-02 17:24:00,
2013-05-02 12:29:00,58.1,33.9,30.20,NE,48,3.6,0.0,40,0.00,,,0.00,WeatherDisplay:10.36,2013-05-02 17:29:00,
2013-05-02 12:34:00,57.9,33.7,30.17,NE,34,3.1,0.0,40,0.00,,,0.00,WeatherDisplay:10.36,2013-05-02 17:34:00,
2013-05-02 12:39:00,57.9,33.7,30.17,NE,51,3.6,0.0,40,0.00,,,0.00,WeatherDisplay:10.36,2013-05-02 17:39:00,
2013-05-02 12:44:00,57.9,33.1,30.17,NNE,27,0.0,0.0,39,0.00,,,0.00,WeatherDisplay:10.36,2013-05-02 17:44:00,
2013-05-02 12:49:00,57.7,33.6,30.17,ENE,60,5.8,0.0,40,0.00,,,0.00,WeatherDisplay:10.36,2013-05-02 17:49:00,
2013-05-02 12:54:00,57.6,34.0,30.17,NE,55,0.0,0.0,41,0.00,,,0.00,WeatherDisplay:10.36,2013-05-02 17:54:00,
2013-05-02 12:59:00,57.9,34.9,30.17,North,351,5.8,0.0,42,0.00,,,0.00,WeatherDisplay:10.36,2013-05-02 17:59:00,
2013-05-02 13:04:00,58.1,35.1,30.17,ENE,63,4.0,0.0,42,0.00,,,0.00,WeatherDisplay:10.36,2013-05-02 18:04:00,
2013-05-02 13:09:00,58.6,35.0,30.17,NNE,27,0.0,0.0,41,0.00,,,0.00,WeatherDisplay:10.36,2013-05-02 18:09:00,
2013-05-02 13:14:00,58.3,33.4,30.17,NE,49,0.0,0.0,39,0.00,,,0.00,WeatherDisplay:10.36,2013-05-02 18:14:00,
2013-05-02 13:19:00,58.1,33.9,30.59,NE,44,4.6,0.0,40,0.00,,,0.00,WeatherDisplay:10.36,2013-05-02 18:19:00,
2013-05-02 13:24:00,58.1,33.9,30.59,NE,49,7.4,7.4,40,0.00,,,0.00,WeatherDisplay:10.36,2013-05-02 18:24:00,
2013-05-02 13:29:00,58.3,34.7,30.59,NE,54,3.5,0.0,41,0.00,,,0.00,WeatherDisplay:10.36,2013-05-02 18:29:00,
2013-05-02 13:34:00,58.1,33.2,30.17,NE,52,3.5,0.0,39,0.00,,,0.00,WeatherDisplay:10.36,2013-05-02 18:34:00,
2013-05-02 13:39:00,58.1,34.5,30.17,NE,47,0.0,0.0,41,0.00,,,0.00,WeatherDisplay:10.36,2013-05-02 18:39:00,
2013-05-02 13:44:00,58.3,34.7,30.17,NE,49,0.0,0.0,41,0.00,,,0.00,WeatherDisplay:10.36,2013-05-02 18:44:00,
2013-05-02 13:49:00,58.5,34.8,30.17,NE,47,0.0,0.0,41,0.00,,,0.00,WeatherDisplay:10.36,2013-05-02 18:49:00,
2013-05-02 13:54:00,58.1,33.2,30.17,NE,50,0.0,0.0,39,0.00,,,0.00,WeatherDisplay:10.36,2013-05-02 18:54:00,
2013-05-02 13:59:00,58.1,34.5,30.17,North,351,0.0,0.0,41,0.00,,,0.00,WeatherDisplay:10.36,2013-05-02 18:59:00,
2013-05-02 14:04:00,57.9,33.7,30.17,NE,49,4.6,0.0,40,0.00,,,0.00,WeatherDisplay:10.36,2013-05-02 19:04:00,
2013-05-02 14:09:00,57.4,33.9,30.17,NE,52,3.5,0.0,41,0.00,,,0.00,WeatherDisplay:10.36,2013-05-02 19:09:00,
2013-05-02 14:14:00,56.8,33.4,30.17,NE,47,3.1,0.0,41,0.00,,,0.00,WeatherDisplay:10.36,2013-05-02 19:14:00,
2013-05-02 14:19:00,56.5,34.2,30.17,ENE,57,2.3,0.0,43,0.00,,,0.00,WeatherDisplay:10.36,2013-05-02 19:19:00,
2013-05-02 14:24:00,56.8,34.6,30.17,North,351,2.7,0.0,43,0.00,,,0.00,WeatherDisplay:10.36,2013-05-02 19:24:00,
2013-05-02 14:29:00,56.8,34.6,30.17,NE,45,0.0,0.0,43,0.00,,,0.00,WeatherDisplay:10.36,2013-05-02 19:29:00,
2013-05-02 14:34:00,56.7,34.4,30.70,East,94,0.0,0.0,43,0.00,,,0.00,WeatherDisplay:10.36,2013-05-02 19:34:00,
2013-05-02 14:39:00,56.8,34.6,30.70,NE,50,3.6,0.0,43,0.00,,,0.00,WeatherDisplay:10.36,2013-05-02 19:39:00,
2013-05-02 14:44:00,56.8,34.6,30.70,NE,49,4.0,0.0,43,0.00,,,0.00,WeatherDisplay:10.36,2013-05-02 19:44:00,
2013-05-02 14:49:00,56.7,34.4,30.20,NE,53,0.0,0.0,43,0.00,,,0.00,WeatherDisplay:10.36,2013-05-02 19:49:00,
2013-05-02 14:54:00,56.5,34.8,30.20,NE,49,4.0,4.0,44,0.00,,,0.00,WeatherDisplay:10.36,2013-05-02 19:54:00,
2013-05-02 14:59:00,56.1,33.9,30.20,SE,136,4.6,0.0,43,0.00,,,0.00,WeatherDisplay:10.36,2013-05-02 19:59:00,
2013-05-02 15:04:00,55.9,34.3,30.17,ENE,65,2.7,0.0,44,0.00,,,0.00,WeatherDisplay:10.36,2013-05-02 20:04:00,
2013-05-02 15:09:00,55.4,33.8,30.17,ENE,65,6.3,0.0,44,0.00,,,0.00,WeatherDisplay:10.36,2013-05-02 20:09:00,
2013-05-02 15:14:00,55.0,34.1,30.17,NE,45,0.0,0.0,45,0.00,,,0.00,WeatherDisplay:10.36,2013-05-02 20:14:00,
2013-05-02 15:19:00,55.0,34.1,30.17,NE,50,2.7,0.0,45,0.00,,,0.00,WeatherDisplay:10.36,2013-05-02 20:19:00,
2013-05-02 15:24:00,54.7,33.7,30.17,North,351,2.7,0.0,45,0.00,,,0.00,WeatherDisplay:10.36,2013-05-02 20:24:00,
2013-05-02 15:29:00,54.3,34.0,30.17,North,351,4.6,0.0,46,0.00,,,0.00,WeatherDisplay:10.36,2013-05-02 20:29:00,
2013-05-02 15:34:00,53.6,33.3,30.17,ENE,70,0.0,0.0,46,0.00,,,0.00,WeatherDisplay:10.36,2013-05-02 20:34:00,
2013-05-02 15:39:00,53.4,33.7,30.17,NE,51,7.8,0.0,47,0.00,,,0.00,WeatherDisplay:10.36,2013-05-02 20:39:00,
2013-05-02 15:44:00,53.1,33.3,30.17,East,91,4.5,0.0,47,0.00,,,0.00,WeatherDisplay:10.36,2013-05-02 20:44:00,
2013-05-02 15:49:00,52.5,33.4,30.17,NE,52,0.0,0.0,48,0.00,,,0.00,WeatherDisplay:10.36,2013-05-02 20:49:00,
2013-05-02 15:54:00,52.7,34.1,30.17,NNE,32,0.0,0.0,49,0.00,,,0.00,WeatherDisplay:10.36,2013-05-02 20:54:00,
2013-05-02 15:59:00,52.3,33.7,30.17,NE,51,3.5,0.0,49,0.00,,,0.00,WeatherDisplay:10.36,2013-05-02 20:59:00,
2013-05-02 16:04:00,51.8,33.2,30.17,NE,54,6.7,0.0,49,0.00,,,0.00,WeatherDisplay:10.36,2013-05-02 21:04:00,
2013-05-02 16:09:00,51.4,32.9,30.17,NE,35,0.0,0.0,49,0.00,,,0.00,WeatherDisplay:10.36,2013-05-02 21:09:00,
2013-05-02 16:14:00,51.3,32.7,30.17,NE,34,3.5,0.0,49,0.00,,,0.00,WeatherDisplay:10.36,2013-05-02 21:14:00,
2013-05-02 16:19:00,51.4,33.4,30.17,SE,139,5.4,0.0,50,0.00,,,0.00,WeatherDisplay:10.36,2013-05-02 21:19:00,
2013-05-02 16:24:00,51.3,33.2,30.17,NE,50,2.3,0.0,50,0.00,,,0.00,WeatherDisplay:10.36,2013-05-02 21:24:00,
2013-05-02 16:30:00,51.3,33.2,30.17,ENE,74,0.0,0.0,50,0.00,,,0.00,WeatherDisplay:10.36,2013-05-02 21:30:00,
2013-05-02 16:35:00,51.1,33.1,30.17,NE,52,3.5,0.0,50,0.00,,,0.00,WeatherDisplay:10.36,2013-05-02 21:35:00,
2013-05-02 16:40:00,50.7,32.7,30.17,NE,48,0.0,0.0,50,0.00,,,0.00,WeatherDisplay:10.36,2013-05-02 21:40:00,
2013-05-02 16:45:00,50.4,32.9,30.17,NE,52,4.9,0.0,51,0.00,,,0.00,WeatherDisplay:10.36,2013-05-02 21:45:00,
2013-05-02 16:50:00,50.2,33.2,30.94,NE,38,3.5,0.0,52,0.00,,,0.00,WeatherDisplay:10.36,2013-05-02 21:50:00,
2013-05-02 16:55:00,50.0,33.5,30.94,NE,44,0.0,0.0,53,0.00,,,0.00,WeatherDisplay:10.36,2013-05-02 21:55:00,
2013-05-02 17:00:00,50.0,34.0,30.94,NE,51,0.0,0.0,54,0.00,,,0.00,WeatherDisplay:10.36,2013-05-02 22:00:00,
2013-05-02 17:05:00,49.8,33.4,30.17,North,351,5.8,0.0,53,0.00,,,0.00,WeatherDisplay:10.36,2013-05-02 22:05:00,
2013-05-02 17:10:00,49.1,33.2,30.17,ENE,57,0.0,0.0,54,0.00,,,0.00,WeatherDisplay:10.36,2013-05-02 22:10:00,
2013-05-02 17:15:00,48.9,33.4,30.17,NE,53,2.7,0.0,55,0.00,,,0.00,WeatherDisplay:10.36,2013-05-02 22:15:00,
2013-05-02 17:20:00,48.7,33.7,30.94,NE,51,8.3,8.3,56,0.00,,,0.00,WeatherDisplay:10.36,2013-05-02 22:20:00,
2013-05-02 17:26:00,48.4,33.4,30.94,NE,49,0.0,0.0,56,0.00,,,0.00,WeatherDisplay:10.36,2013-05-02 22:26:00,
2013-05-02 17:31:00,48.2,33.7,30.94,East,93,0.0,0.0,57,0.00,,,0.00,WeatherDisplay:10.36,2013-05-02 22:31:00,
2013-05-02 17:37:00,47.8,33.8,30.17,NE,55,0.0,0.0,58,0.00,,,0.00,WeatherDisplay:10.36,2013-05-02 22:37:00,
2013-05-02 17:42:00,47.5,33.4,30.17,NE,53,0.0,3.1,58,0.00,,,0.00,WeatherDisplay:10.36,2013-05-02 22:42:00,
2013-05-02 17:47:00,47.3,34.1,30.17,NE,51,0.0,0.0,60,0.00,,,0.00,WeatherDisplay:10.36,2013-05-02 22:47:00,
2013-05-02 17:52:00,47.3,34.5,30.14,North,351,7.8,0.0,61,0.00,,,0.00,WeatherDisplay:10.36,2013-05-02 22:52:00,
2013-05-02 17:57:00,47.3,34.5,30.14,ENE,62,2.7,0.0,61,0.00,,,0.00,WeatherDisplay:10.36,2013-05-02 22:57:00,
2013-05-02 18:02:00,47.1,33.9,30.14,NE,53,0.0,2.7,60,0.00,,,0.00,WeatherDisplay:10.36,2013-05-02 23:02:00,
2013-05-02 18:07:00,47.3,34.5,30.14,NE,53,0.0,0.0,61,0.00,,,0.00,WeatherDisplay:10.36,2013-05-02 23:07:00,
2013-05-02 18:12:00,47.1,34.4,30.14,ENE,68,0.0,0.0,61,0.00,,,0.00,WeatherDisplay:10.36,2013-05-02 23:12:00,
2013-05-02 18:17:00,47.1,34.4,30.14,East,92,0.0,0.0,61,0.00,,,0.00,WeatherDisplay:10.36,2013-05-02 23:17:00,
2013-05-02 18:22:00,47.1,34.4,30.17,WNW,289,0.0,0.0,61,0.00,,,0.00,WeatherDisplay:10.36,2013-05-02 23:22:00,
2013-05-02 18:27:00,46.9,34.2,30.17,NE,52,0.0,0.0,61,0.00,,,0.00,WeatherDisplay:10.36,2013-05-02 23:27:00,
2013-05-02 18:32:00,46.8,34.0,30.17,ENE,73,0.0,0.0,61,0.00,,,0.00,WeatherDisplay:10.36,2013-05-02 23:32:00,
2013-05-02 18:37:00,46.8,34.0,30.17,NE,47,0.0,0.0,61,0.00,,,0.00,WeatherDisplay:10.36,2013-05-02 23:37:00,
2013-05-02 18:42:00,46.8,34.0,30.17,NE,51,0.0,0.0,61,0.00,,,0.00,WeatherDisplay:10.36,2013-05-02 23:42:00,
2013-05-02 18:47:00,46.8,34.0,30.17,NE,45,0.0,0.0,61,0.00,,,0.00,WeatherDisplay:10.36,2013-05-02 23:47:00,
2013-05-02 18:52:00,46.8,33.6,30.17,ENE,58,3.6,0.0,60,0.00,,,0.00,WeatherDisplay:10.36,2013-05-02 23:52:00,
2013-05-02 18:57:00,46.4,33.3,30.17,North,351,0.0,0.0,60,0.00,,,0.00,WeatherDisplay:10.36,2013-05-02 23:57:00,
2013-05-02 19:02:00,46.2,33.5,30.17,NE,52,0.0,0.0,61,0.00,,,0.00,WeatherDisplay:10.36,2013-05-03 00:02:00,
2013-05-02 19:08:00,45.9,33.2,30.17,North,351,0.0,0.0,61,0.00,,,0.00,WeatherDisplay:10.36,2013-05-03 00:08:00,
2013-05-02 19:13:00,45.7,33.4,30.17,NE,46,0.0,0.0,62,0.00,,,0.00,WeatherDisplay:10.36,2013-05-03 00:13:00,
2013-05-02 19:18:00,45.5,33.6,30.17,ENE,57,0.0,0.0,63,0.00,,,0.00,WeatherDisplay:10.36,2013-05-03 00:18:00,
2013-05-02 19:23:00,45.3,33.9,30.17,NE,50,0.0,0.0,64,0.00,,,0.00,WeatherDisplay:10.36,2013-05-03 00:23:00,
2013-05-02 19:28:00,45.1,33.7,30.17,ENE,65,0.0,0.0,64,0.00,,,0.00,WeatherDisplay:10.36,2013-05-03 00:28:00,
2013-05-02 19:33:00,44.8,33.7,30.20,ENE,57,0.0,0.0,65,0.00,,,0.00,WeatherDisplay:10.36,2013-05-03 00:33:00,
2013-05-02 19:38:00,44.6,33.9,30.20,NE,49,0.0,0.0,66,0.04,RA,RA,0.04,WeatherDisplay:10.36,2013-05-03 00:38:00,
2013-05-02 19:43:00,44.6,33.9,30.20,ENE,60,0.0,0.0,66,0.04,RA,RA,0.04,WeatherDisplay:10.36,2013-05-03 00:43:00,
2013-05-02 19:48:00,44.4,33.8,30.17,NE,48,0.0,0.0,66,0.04,,,0.04,WeatherDisplay:10.36,2013-05-03 00:48:00,
2013-05-02 19:53:00,44.2,34.0,30.17,ENE,65,0.0,0.0,67,0.04,,,0.04,WeatherDisplay:10.36,2013-05-03 00:53:00,
2013-05-02 19:58:00,43.7,33.5,30.17,North,351,3.6,0.0,67,0.08,RA,RA,0.08,WeatherDisplay:10.36,2013-05-03 00:58:00,
2013-05-02 20:03:00,43.5,34.0,30.17,NE,52,0.0,0.0,69,0.08,RA,RA,0.08,WeatherDisplay:10.36,2013-05-03 01:03:00,
2013-05-02 20:08:00,43.3,34.2,30.17,ENE,75,3.5,0.0,70,0.08,,,0.08,WeatherDisplay:10.36,2013-05-03 01:08:00,
2013-05-02 20:13:00,43.0,34.2,30.17,ENE,57,3.5,0.0,71,0.08,,,0.08,WeatherDisplay:10.36,2013-05-03 01:13:00,
2013-05-02 20:18:00,43.0,34.6,30.38,North,351,6.9,6.9,72,0.08,,,0.08,WeatherDisplay:10.36,2013-05-03 01:18:00,
2013-05-02 20:23:00,42.8,34.7,30.38,NNE,27,7.4,7.4,73,0.08,,,0.08,WeatherDisplay:10.36,2013-05-03 01:23:00,
2013-05-02 20:28:00,42.6,34.6,30.38,ENE,73,3.5,0.0,73,0.08,,,0.08,WeatherDisplay:10.36,2013-05-03 01:28:00,
2013-05-02 20:33:00,42.8,35.1,30.17,NE,55,3.6,0.0,74,0.08,,,0.08,WeatherDisplay:10.36,2013-05-03 01:33:00,
2013-05-02 20:38:00,42.4,34.7,30.17,ENE,57,2.7,0.0,74,0.04,,,0.08,WeatherDisplay:10.36,2013-05-03 01:38:00,
2013-05-02 20:43:00,42.3,34.9,30.17,NNE,31,4.5,0.0,75,0.04,,,0.08,WeatherDisplay:10.36,2013-05-03 01:43:00,
2013-05-02 20:48:00,42.3,34.9,30.17,NE,44,6.9,6.9,75,0.04,,,0.08,WeatherDisplay:10.36,2013-05-03 01:48:00,
2013-05-02 20:53:00,42.1,34.7,30.17,NE,49,5.4,0.0,75,0.08,RA,RA,0.12,WeatherDisplay:10.36,2013-05-03 01:53:00,
2013-05-02 20:58:00,42.1,35.1,30.17,NE,49,9.2,9.2,76,0.04,RA,RA,0.12,WeatherDisplay:10.36,2013-05-03 01:58:00,
2013-05-02 21:03:00,41.9,34.9,30.97,ENE,66,6.3,0.0,76,0.04,,,0.12,WeatherDisplay:10.36,2013-05-03 02:03:00,
2013-05-02 21:08:00,41.7,34.7,30.97,East,93,5.8,5.8,76,0.08,RA,RA,0.16,WeatherDisplay:10.36,2013-05-03 02:08:00,
2013-05-02 21:13:00,41.7,34.7,30.97,NNE,27,4.6,4.6,76,0.12,RA,RA,0.20,WeatherDisplay:10.36,2013-05-03 02:13:00,
2013-05-02 21:18:00,41.5,34.9,30.94,NE,52,9.2,9.2,77,0.12,RA,RA,0.20,WeatherDisplay:10.36,2013-05-03 02:18:00,
2013-05-02 21:23:00,41.4,34.7,30.94,NNE,27,5.8,5.8,77,0.12,,,0.20,WeatherDisplay:10.36,2013-05-03 02:23:00,
2013-05-02 21:28:00,41.5,34.9,30.94,ENE,62,4.5,4.5,77,0.12,,,0.24,WeatherDisplay:10.36,2013-05-03 02:28:00,
2013-05-02 21:33:00,41.4,34.7,30.17,East,88,6.9,6.9,77,0.16,RA,RA,0.24,WeatherDisplay:10.36,2013-05-03 02:33:00,
2013-05-02 21:38:00,41.4,35.0,30.17,NE,47,3.6,0.0,78,0.16,RA,RA,0.24,WeatherDisplay:10.36,2013-05-03 02:38:00,
2013-05-02 21:43:00,41.4,35.0,30.17,ENE,74,3.5,0.0,78,0.16,,,0.24,WeatherDisplay:10.36,2013-05-03 02:43:00,
2013-05-02 21:48:00,41.4,35.0,30.17,ESE,107,2.3,0.0,78,0.20,RA,RA,0.28,WeatherDisplay:10.36,2013-05-03 02:48:00,
2013-05-02 21:53:00,41.5,35.5,30.17,North,351,0.0,0.0,79,0.16,RA,RA,0.28,WeatherDisplay:10.36,2013-05-03 02:53:00,
2013-05-02 21:58:00,41.5,35.5,30.17,NE,54,3.6,0.0,79,0.16,,,0.28,WeatherDisplay:10.36,2013-05-03 02:58:00,
2013-05-02 22:03:00,41.4,35.3,30.17,NE,47,6.9,0.0,79,0.16,,,0.28,WeatherDisplay:10.36,2013-05-03 03:03:00,
2013-05-02 22:08:00,41.2,35.2,30.17,NNE,31,4.6,0.0,79,0.12,,,0.28,WeatherDisplay:10.36,2013-05-03 03:08:00,
2013-05-02 22:13:00,41.2,35.2,30.17,NNW,336,0.0,0.0,79,0.08,,,0.28,WeatherDisplay:10.36,2013-05-03 03:13:00,
2013-05-02 22:18:00,41.2,35.2,30.17,North,351,2.7,0.0,79,0.08,,,0.28,WeatherDisplay:10.36,2013-05-03 03:18:00,
2013-05-02 22:23:00,41.2,35.5,30.97,ENE,77,4.0,0.0,80,0.12,RA,RA,0.31,WeatherDisplay:10.36,2013-05-03 03:23:00,
2013-05-02 22:28:00,41.0,35.0,30.97,NE,43,3.6,3.6,79,0.12,RA,RA,0.31,WeatherDisplay:10.36,2013-05-03 03:28:00,
2013-05-02 22:33:00,40.6,34.6,30.97,NE,39,13.8,13.8,79,0.08,,,0.31,WeatherDisplay:10.36,2013-05-03 03:33:00,
2013-05-02 22:38:00,40.5,34.8,30.97,NNE,27,4.6,4.6,80,0.08,,,0.31,WeatherDisplay:10.36,2013-05-03 03:38:00,
2013-05-02 22:43:00,40.3,34.6,30.97,NNW,337,4.6,4.6,80,0.08,,,0.31,WeatherDisplay:10.36,2013-05-03 03:43:00,
2013-05-02 22:48:00,40.3,34.6,30.14,NE,54,6.9,6.9,80,0.08,RA,RA,0.35,WeatherDisplay:10.36,2013-05-03 03:48:00,
2013-05-02 22:53:00,40.5,35.1,30.14,ENE,57,6.3,0.0,81,0.08,RA,RA,0.35,WeatherDisplay:10.36,2013-05-03 03:53:00,
2013-05-02 22:58:00,40.5,35.1,30.14,ENE,67,0.0,0.0,81,0.08,,,0.35,WeatherDisplay:10.36,2013-05-03 03:58:00,
2013-05-02 23:01:00,40.5,35.1,30.14,NE,52,3.6,3.6,81,0.08,,,0.35,WeatherDisplay:10.36,2013-05-03 04:01:00,
2013-05-02 23:02:00,40.5,35.1,30.14,North,351,5.4,0.0,81,0.08,,,0.35,WeatherDisplay:10.36,2013-05-03 04:02:00,
2013-05-02 23:03:00,40.5,35.1,30.94,North,351,5.8,5.8,81,0.08,,,0.35,WeatherDisplay:10.36,2013-05-03 04:03:00,
2013-05-02 23:05:00,40.5,35.1,30.94,North,351,3.6,3.6,81,0.08,,,0.35,WeatherDisplay:10.36,2013-05-03 04:05:00,
2013-05-02 23:10:00,40.5,35.1,30.94,NE,54,3.6,0.0,81,0.08,,,0.35,WeatherDisplay:10.36,2013-05-03 04:10:00,
2013-05-02 23:11:00,40.5,35.1,30.94,ENE,58,2.7,0.0,81,0.08,,,0.39,WeatherDisplay:10.36,2013-05-03 04:11:00,
2013-05-02 23:16:00,40.5,35.4,30.94,NE,42,6.9,6.9,82,0.12,RA,RA,0.39,WeatherDisplay:10.36,2013-05-03 04:16:00,
2013-05-02 23:21:00,40.5,35.4,30.14,ENE,57,5.4,5.4,82,0.08,RA,RA,0.39,WeatherDisplay:10.36,2013-05-03 04:21:00,
2013-05-02 23:27:00,40.3,35.2,30.14,SSE,152,3.5,0.0,82,0.08,,,0.39,WeatherDisplay:10.36,2013-05-03 04:27:00,
2013-05-02 23:32:00,40.5,35.4,30.14,ENE,63,3.1,0.0,82,0.08,,,0.39,WeatherDisplay:10.36,2013-05-03 04:32:00,
2013-05-02 23:37:00,40.5,35.4,30.14,ENE,63,3.6,0.0,82,0.08,,,0.39,WeatherDisplay:10.36,2013-05-03 04:37:00,
2013-05-02 23:42:00,40.5,35.4,30.14,NE,56,0.0,0.0,82,0.08,,,0.39,WeatherDisplay:10.36,2013-05-03 04:42:00,
2013-05-02 23:47:00,40.6,35.6,30.94,North,351,4.9,4.9,82,0.08,RA,RA,0.43,WeatherDisplay:10.36,2013-05-03 04:47:00,
2013-05-02 23:52:00,40.5,35.4,30.94,North,351,3.5,0.0,82,0.08,RA,RA,0.43,WeatherDisplay:10.36,2013-05-03 04:52:00,
2013-05-02 23:57:00,40.5,35.4,30.94,North,351,4.0,0.0,82,0.08,,,0.43,WeatherDisplay:10.36,2013-05-03 04:57:00,